Location: Mentone
(34.5413°N, 85.5351°W)
Time: 21:41:56
(UTC-05:00)

Centaur AC-72 - Visible Passes

Search period start: 23 April 2014 00:00
Search period end: 03 May 2014 00:00
Orbit: 1089 x 35267 km, 19.4° (Epoch: 22 April)

Date Brightness Start Highest point End Pass type
(mag) Time Alt. Az. Time Alt. Az. Time Alt. Az.
23 Apr 10.6 01:57:44 10° E 04:15:26 21° E 05:27:50 10° E visible
24 Apr 6.1 04:50:19 10° SW 14:09:22 45° SW 14:22:30 10° SE visible
25 Apr 7.2 02:04:00 22° S 10:56:23 66° S 11:31:27 10° ESE visible
25 Apr 8.2 23:53:40 10° ESE 06:56:58 56° SE 08:33:58 10° E visible
27 Apr 10.5 01:45:28 10° E 03:58:41 20° E 05:10:16 10° E visible
28 Apr 6.1 04:34:00 11° SW 13:53:08 45° SW 14:06:45 10° SE visible
29 Apr 7.2 01:51:07 24° S 10:38:42 67° S 11:15:37 10° ESE visible
29 Apr 8.2 23:39:48 10° ESE 06:39:13 55° SE 08:17:52 10° E visible
01 May 10.4 01:33:26 10° E 03:41:56 19° E 04:52:33 10° E visible
02 May 6.2 04:21:05 13° SW 13:36:52 45° SW 13:50:59 10° SE visible
